#timestamp,LO_Frequency,Hit 
1504530015.5,286046997.2,N
1504530035.3,286046997.5,N
1504530055.2,286046996.7,N
1504530075.0,286046994.3,N
1504530075.9,286046994.3,N
1504530095.7,286046997.5,N
1504530115.6,286046996.6,N
1504530135.4,286046995.0,N
1504530155.2,286046999.6,N
1504530175.1,286046995.5,N
1504530176.0,286046995.5,N
1504530195.8,286046999.6,N
1504530215.6,286046997.4,N
1504530235.5,286046998.6,N
1504530255.3,286046998.6,N
1504530275.1,286046998.8,N
1504530295.9,286047002.5,N
1504530315.7,286047000.7,N
1504530335.5,286047000.7,N
1504530355.4,286047000.4,N
1504530375.2,286046996.9,N
1504530395.0,286046999.4,N
1504530395.9,286046999.4,N
1504530415.8,286047000.1,N
1504530435.6,286047004.0,N
1504530455.4,286047004.4,N
1504530475.1,286047004.0,N
1504530476.0,286047004.0,N
1504530495.8,286047004.0,N
1504530515.6,286047002.4,N
1504530535.5,286047002.4,N
1504530555.3,286046996.7,N
1504530575.1,286046998.7,N
1504530595.9,286046996.5,N
1504530615.7,286046998.9,N
1504530635.5,286046998.7,N
1504530655.4,286047001.2,N
1504530675.2,286046998.9,N
1504530695.0,286047000.6,N
1504530695.9,286047000.6,N
1504530715.8,286046999.9,N
1504530735.6,286047002.4,N
1504530755.4,286047002.5,N
1504530775.3,286047000.3,N
1504530795.1,286046998.3,N
1504530796.0,286046998.3,N
1504530815.8,286047000.7,N
1504530835.7,286046999.3,N
1504530855.5,286046998.2,N
1504530875.3,286047001.1,N
1504530895.2,286047000.0,N
1504530915.9,286047003.5,N
1504530935.7,286047000.6,N
1504530955.5,286047000.8,N
1504530975.4,286046998.4,N
1504530995.2,286046999.6,N
1504531015.0,286046996.3,N
1504531015.9,286046996.3,N
1504531035.8,286046997.4,N
1504531055.8,286046999.6,N
1504531075.6,286046999.1,N
1504531095.4,286047000.9,N
1504531115.2,286046995.7,N
1504531135.1,286046997.7,N
1504531136.0,286046997.7,N
1504531155.8,286047002.8,N
1504531175.6,286047002.0,N
1504531195.5,286046996.7,N
1504531215.3,286046999.6,N
1504531235.1,286047000.6,N
1504531255.9,286046998.7,N
1504531275.7,286046999.3,N
1504531295.5,286046998.5,N
1504531315.4,286046996.8,N
1504531335.2,286046996.7,N
1504531355.0,286046998.0,N
1504531355.9,286046998.0,N
1504531375.8,286046997.2,N
1504531395.6,286047001.6,N
1504531415.4,286047002.3,N
1504531435.3,286047001.0,N
1504531455.1,286047000.5,N
1504531456.0,286047000.5,N
1504531475.8,286047002.0,N
1504531495.7,286047003.3,N
1504531515.5,286047005.3,N
1504531535.3,286047004.2,N
1504531555.4,286047002.5,N
1504531575.2,286047003.1,N
1504531595.0,286047002.5,N
1504531595.9,286047002.5,N
1504531615.8,286047002.3,N
1504531635.6,286047001.0,N
1504531655.5,286047001.4,N
1504531675.3,286047004.2,N
1504531695.1,286047003.7,N
1504531715.9,286047003.1,N
1504531735.7,286047002.9,N
1504531755.5,286047005.3,N
1504531775.3,286047002.4,N
1504531795.2,286046998.7,N
1504531815.0,286047005.4,N
1504531815.9,286047005.4,N
1504531835.7,286047005.1,N
1504531855.6,286047000.8,N
1504531875.4,286046998.8,N
1504531895.2,286047003.7,N
1504531915.1,286047004.9,N
1504531916.0,286047004.9,N
1504531935.8,286047003.4,N
1504531955.6,286047005.2,N
1504531975.5,286047005.5,N
1504531995.3,286047007.1,P
1504532015.1,286047002.2,N
1504532035.9,286047002.3,N
1504532055.7,286046998.5,N
1504532075.5,286046996.7,N
1504532095.4,286046993.5,N
1504532115.2,286046997.1,N
1504532135.0,286046999.6,N
1504532135.9,286046999.6,N
1504532155.8,286046998.7,N
1504532175.6,286046996.0,N
1504532195.4,286046997.4,N
1504532215.3,286047000.5,N
1504532235.1,286046997.5,N
1504532236.0,286046997.5,N
1504532255.8,286046995.9,N
1504532275.7,286046997.0,N
1504532295.5,286046998.1,N
1504532315.3,286047002.7,N
1504532335.2,286047001.2,N
1504532355.9,286046998.2,N
1504532375.7,286046998.8,N
1504532395.5,286046998.9,N
1504532415.4,286046995.5,N
1504532435.2,286046995.5,N
1504532455.0,286046995.2,N
1504532455.9,286046995.2,N
1504532475.8,286046995.0,N
1504532495.6,286046994.9,N
1504532515.4,286046995.6,N
1504532535.3,286046995.2,N
1504532555.1,286046995.4,N
1504532575.8,286046996.1,N
1504532595.7,286046999.2,N
1504532615.5,286046995.0,N
1504532635.3,286046995.7,N
1504532655.2,286046995.8,N
1504532675.9,286046997.1,N
1504532695.7,286046999.6,N
1504532715.6,286046995.2,N
1504532735.4,286046995.3,N
1504532755.2,286046997.5,N
1504532775.1,286046995.0,N
1504532776.0,286046995.0,N
1504532795.8,286046995.9,N
1504532815.6,286046994.2,N
1504532835.4,286046996.1,N
1504532855.3,286046997.3,N
1504532875.1,286047000.8,N
1504532895.8,286046997.9,N
1504532915.7,286046998.9,N
1504532935.5,286047002.5,N
1504532955.3,286047000.8,N
1504532975.2,286046998.6,N
1504532995.9,286047001.0,N
1504533015.7,286046995.3,N
1504533035.6,286046997.9,N
1504533055.4,286046993.3,P
1504533075.2,286046998.6,N
1504533095.1,286046996.9,N
1504533096.0,286046996.9,N
1504533115.8,286046996.7,N
1504533135.6,286046999.4,N
1504533155.5,286047000.4,N
1504533175.3,286047002.0,N
1504533195.1,286047001.9,N
1504533215.9,286047000.3,N
1504533235.7,286046999.2,N
1504533255.5,286046998.7,N
1504533275.4,286046993.4,N
1504533295.2,286046993.8,N
1504533315.0,286046996.4,N
1504533315.9,286046996.4,N
1504533335.8,286046996.2,N
1504533355.6,286046993.4,N
1504533375.4,286046991.7,P
1504533395.3,286046993.5,N
1504533415.1,286046997.9,N
1504533416.0,286046997.9,N
1504533435.8,286046993.9,N
1504533455.7,286046997.2,N
1504533475.5,286046993.8,N
1504533495.3,286046995.6,N
1504533515.1,286046997.8,N
1504533535.9,286046996.5,N
1504533555.7,286047001.1,N
1504533575.5,286046999.8,N
1504533595.4,286047001.8,N
